When you browse on this site, cookies collect data to enhance your experience and personalize the content and advertising you see.
Visit our Privacy Policy to learn more. By continuing to use the site, you agree to this use of cookies and data.
  • In United Kingdom
  • List of Countries
  • For 7 days
  • Water Temperature
  • Satellite Maps
  • Weather Map
  • Weather Widgets
  • user-avatar
    Login

    Hourly Weather Gaborone

    Today, 22 January, Tuesday

    Time Temperature Precipitation Wind Pressure Humidity
    00:00 +26°C° 0 mm 1 mps 678 mmHg 31%
    01:00 +23°C° 0 mm 0 mps 677 mmHg 32%
    02:00 +23°C° 0 mm 0 mps 677 mmHg 32%
    03:00 +22°C° 0 mm 0 mps 677 mmHg 34%
    04:00 +22°C° 0 mm 0 mps 677 mmHg 35%
    05:00 +23°C° 0 mm 1 mps 677 mmHg 37%
    06:00 +24°C° 0 mm 1 mps 677 mmHg 37%
    07:00 +26°C° 0 mm 2 mps 678 mmHg 37%
    08:00 +26°C° 0 mm 2 mps 678 mmHg 41%
    09:00 +29°C° 0 mm 2 mps 679 mmHg 35%
    10:00 +31°C° 0 mm 1 mps 679 mmHg 28%
    11:00 +34°C° 0 mm 1 mps 679 mmHg 22%
    12:00 +36°C° 0 mm 2 mps 678 mmHg 19%
    13:00 +37°C° 0 mm 2 mps 678 mmHg 16%
    14:00 +38°C° 0 mm 3 mps 677 mmHg 12%
    15:00 +38°C° 0 mm 2 mps 677 mmHg 12%
    16:00 +38°C° 0 mm 2 mps 676 mmHg 12%
    17:00 +39°C° 0 mm 2 mps 676 mmHg 11%
    18:00 +37°C° 0 mm 2 mps 675 mmHg 13%
    19:00 +35°C° 0 mm 2 mps 675 mmHg 15%
    20:00 +32°C° 0 mm 2 mps 675 mmHg 16%
    21:00 +31°C° 0 mm 2 mps 675 mmHg 17%
    22:00 +30°C° 0 mm 2 mps 675 mmHg 17%
    23:00 +30°C° 0 mm 2 mps 675 mmHg 18%

    Tomorrow, 23 January, Wednesday

    Time Temperature Precipitation Wind Pressure Humidity
    00:00 +29°C° 0 mm 1 mps 675 mmHg 18%
    01:00 +28°C° 0 mm 1 mps 675 mmHg 19%
    02:00 +27°C° 0 mm 1 mps 675 mmHg 20%
    03:00 +26°C° 0 mm 1 mps 674 mmHg 22%
    04:00 +26°C° 0 mm 1 mps 674 mmHg 25%
    05:00 +25°C° 0 mm 1 mps 674 mmHg 27%
    06:00 +26°C° 0 mm 1 mps 675 mmHg 26%
    07:00 +27°C° 0 mm 1 mps 676 mmHg 25%
    08:00 +29°C° 0 mm 2 mps 676 mmHg 24%
    09:00 +31°C° 0 mm 2 mps 676 mmHg 21%
    10:00 +34°C° 0 mm 2 mps 677 mmHg 18%
    11:00 +37°C° 0 mm 3 mps 677 mmHg 16%
    12:00 +38°C° 0 mm 2 mps 677 mmHg 15%
    13:00 +40°C° 0 mm 2 mps 676 mmHg 14%
    14:00 +42°C° 0 mm 1 mps 676 mmHg 13%
    15:00 +41°C° 0 mm 1 mps 675 mmHg 13%
    16:00 +41°C° 0 mm 1 mps 675 mmHg 13%
    17:00 +40°C° 0 mm 1 mps 674 mmHg 12%
    18:00 +39°C° 0 mm 2 mps 674 mmHg 14%
    19:00 +38°C° 0 mm 2 mps 674 mmHg 16%
    20:00 +36°C° 0 mm 2 mps 674 mmHg 17%
    21:00 +35°C° 0 mm 2 mps 674 mmHg 18%
    22:00 +33°C° 0 mm 1 mps 674 mmHg 19%
    23:00 +32°C° 0 mm 1 mps 674 mmHg 21%

    Day after tomorrow, 24 January, Thursday

    Time Temperature Precipitation Wind Pressure Humidity
    00:00 +32°C° 0 mm 1 mps 674 mmHg 21%
    01:00 +31°C° 0 mm 1 mps 673 mmHg 22%
    02:00 +30°C° 0 mm 1 mps 673 mmHg 23%
    03:00 +30°C° 0 mm 1 mps 673 mmHg 24%
    04:00 +29°C° 0 mm 1 mps 673 mmHg 25%
    05:00 +29°C° 0 mm 1 mps 674 mmHg 25%
    06:00 +29°C° 0 mm 2 mps 674 mmHg 28%
    07:00 +29°C° 0 mm 3 mps 675 mmHg 30%
    08:00 +29°C° 0 mm 3 mps 675 mmHg 33%
    09:00 +30°C° 0 mm 4 mps 675 mmHg 31%
    10:00 +33°C° 0 mm 4 mps 676 mmHg 30%
    11:00 +35°C° 0 mm 4 mps 676 mmHg 28%
    12:00 +36°C° 0 mm 4 mps 675 mmHg 25%
    13:00 +38°C° 0 mm 3 mps 675 mmHg 22%
    14:00 +40°C° 0 mm 3 mps 675 mmHg 18%
    15:00 +40°C° 0 mm 2 mps 674 mmHg 17%
    16:00 +40°C° 0 mm 2 mps 674 mmHg 16%
    17:00 +41°C° 0 mm 1 mps 674 mmHg 15%
    18:00 +39°C° 0 mm 1 mps 674 mmHg 17%
    19:00 +37°C° 0 mm 2 mps 673 mmHg 19%
    20:00 +35°C° 0 mm 2 mps 673 mmHg 20%
    21:00 +34°C° 0 mm 4 mps 674 mmHg 26%
    22:00 +33°C° 0 mm 5 mps 674 mmHg 31%
    23:00 +32°C° 0 mm 6 mps 675 mmHg 36%

    25 January, Friday

    Time Temperature Precipitation Wind Pressure Humidity
    00:00 +30°C° 0 mm 5 mps 675 mmHg 38%
    01:00 +29°C° 0 mm 5 mps 675 mmHg 41%
    02:00 +28°C° 0 mm 4 mps 675 mmHg 43%
    03:00 +28°C° 0 mm 4 mps 675 mmHg 43%
    04:00 +27°C° 0 mm 3 mps 675 mmHg 43%
    05:00 +27°C° 0 mm 3 mps 676 mmHg 42%
    06:00 +27°C° 0 mm 4 mps 676 mmHg 40%
    07:00 +28°C° 0 mm 5 mps 677 mmHg 38%
    08:00 +28°C° 0 mm 6 mps 678 mmHg 35%
    09:00 +30°C° 0 mm 6 mps 678 mmHg 34%
    10:00 +32°C° 0 mm 6 mps 678 mmHg 33%
    11:00 +34°C° 0 mm 6 mps 678 mmHg 32%
    12:00 +36°C° 0 mm 5 mps 678 mmHg 28%
    13:00 +39°C° 0 mm 5 mps 677 mmHg 25%
    14:00 +40°C° 0 mm 4 mps 677 mmHg 21%
    15:00 +40°C° 0 mm 4 mps 676 mmHg 21%
    16:00 +41°C° 0 mm 4 mps 676 mmHg 20%
    17:00 +40°C° 0 mm 3 mps 675 mmHg 19%
    18:00 +37°C° 0.3 mm 3 mps 675 mmHg 26%
    19:00 +35°C° 0.3 mm 4 mps 675 mmHg 33%
    20:00 +32°C° 0.3 mm 4 mps 675 mmHg 40%
    21:00 +30°C° 0.1 mm 4 mps 675 mmHg 46%
    22:00 +29°C° 0.1 mm 5 mps 675 mmHg 51%
    23:00 +28°C° 0.1 mm 6 mps 676 mmHg 56%

    26 January, Saturday

    Time Temperature Precipitation Wind Pressure Humidity
    00:00 +27°C° 0 mm 6 mps 676 mmHg 56%
    01:00 +27°C° 0 mm 5 mps 675 mmHg 55%
    02:00 +26°C° 0 mm 5 mps 675 mmHg 55%
    03:00 +26°C° 0.2 mm 4 mps 675 mmHg 56%
    04:00 +25°C° 0.2 mm 3 mps 676 mmHg 57%
    05:00 +25°C° 0.2 mm 3 mps 676 mmHg 59%
    06:00 +25°C° 0.1 mm 4 mps 676 mmHg 57%
    07:00 +26°C° 0.1 mm 4 mps 677 mmHg 55%
    08:00 +27°C° 0.1 mm 5 mps 678 mmHg 53%
    09:00 +29°C° 0.1 mm 5 mps 678 mmHg 47%
    10:00 +32°C° 0.1 mm 5 mps 678 mmHg 42%
    11:00 +34°C° 0.1 mm 5 mps 678 mmHg 36%
    12:00 +36°C° 0 mm 5 mps 678 mmHg 32%
    13:00 +39°C° 0 mm 5 mps 677 mmHg 28%
    14:00 +40°C° 0 mm 4 mps 677 mmHg 23%
    15:00 +40°C° 0 mm 4 mps 676 mmHg 22%
    16:00 +40°C° 0 mm 4 mps 676 mmHg 21%
    17:00 +41°C° 0 mm 4 mps 675 mmHg 20%
    18:00 +35°C° 2.9 mm 4 mps 675 mmHg 35%
    19:00 +30°C° 2.9 mm 4 mps 674 mmHg 51%
    20:00 +26°C° 2.9 mm 3 mps 674 mmHg 66%
    21:00 +26°C° 0.4 mm 3 mps 675 mmHg 65%
    22:00 +26°C° 0.4 mm 3 mps 675 mmHg 65%
    23:00 +26°C° 0.4 mm 2 mps 675 mmHg 64%

    27 January, Sunday

    Time Temperature Precipitation Wind Pressure Humidity
    00:00 +26°C° 0 mm 2 mps 675 mmHg 66%
    01:00 +25°C° 0 mm 2 mps 675 mmHg 67%
    02:00 +25°C° 0 mm 2 mps 675 mmHg 69%
    03:00 +24°C° 0.2 mm 3 mps 675 mmHg 72%
    04:00 +23°C° 0.2 mm 4 mps 676 mmHg 74%
    05:00 +22°C° 0.2 mm 6 mps 676 mmHg 77%
    06:00 +22°C° 0.1 mm 6 mps 677 mmHg 76%
    07:00 +23°C° 0.1 mm 6 mps 677 mmHg 76%
    08:00 +23°C° 0.1 mm 7 mps 678 mmHg 75%
    09:00 +24°C° 0 mm 7 mps 678 mmHg 69%
    10:00 +27°C° 0 mm 6 mps 678 mmHg 63%
    11:00 +28°C° 0 mm 6 mps 678 mmHg 57%
    12:00 +30°C° 0 mm 6 mps 678 mmHg 51%
    13:00 +33°C° 0 mm 6 mps 677 mmHg 45%
    14:00 +35°C° 0 mm 6 mps 677 mmHg 39%
    15:00 +35°C° 0 mm 6 mps 677 mmHg 37%
    16:00 +36°C° 0 mm 5 mps 676 mmHg 36%
    17:00 +36°C° 0 mm 5 mps 676 mmHg 35%
    18:00 +34°C° 0 mm 6 mps 676 mmHg 40%
    19:00 +33°C° 0 mm 6 mps 676 mmHg 45%
    20:00 +30°C° 0 mm 7 mps 675 mmHg 49%
    21:00 +28°C° 8.5 mm 8 mps 676 mmHg 60%
    22:00 +26°C° 8.5 mm 8 mps 677 mmHg 70%
    23:00 +23°C° 8.5 mm 9 mps 678 mmHg 81%
    Show more